Location: Vancouver
(49.2500°N, 123.1330°W)
Time: 05:48:13
(UTC-08:00)

ISS - Visible Passes

Search period start: 09 February 2016 00:00
Search period end: 19 February 2016 00:00
Orbit: 399 x 408 km, 51.6° (Epoch: 09 February)

Date Brightness Start Highest point End Pass type
(mag) Time Alt. Az. Time Alt. Az. Time Alt. Az.
09 Feb -3.3 18:01:57 10° WSW 18:05:12 75° NNW 18:08:19 11° ENE visible
09 Feb -2.0 19:38:40 10° WNW 19:40:57 38° NW 19:40:57 38° NW visible
10 Feb -3.0 18:45:58 10° W 18:49:10 53° N 18:50:28 30° ENE visible
10 Feb -0.1 20:22:32 10° WNW 20:23:06 14° WNW 20:23:06 14° WNW visible
11 Feb -3.0 17:53:13 10° W 17:56:26 57° N 17:59:39 10° ENE visible
11 Feb -2.8 19:29:52 10° WNW 19:32:37 54° NW 19:32:37 54° NW visible
12 Feb -3.1 18:37:10 10° WNW 18:40:23 56° N 18:42:08 24° ENE visible
12 Feb -0.5 20:13:40 10° WNW 20:14:46 19° WNW 20:14:46 19° WNW visible
13 Feb -3.5 19:20:57 10° WNW 19:24:13 87° SSW 19:24:19 84° SE visible
14 Feb -3.3 18:28:14 10° WNW 18:31:29 71° NNE 18:33:53 17° E visible
14 Feb -1.0 20:04:50 10° W 20:06:31 23° WSW 20:06:31 23° WSW visible
15 Feb -2.8 19:11:59 10° WNW 19:15:10 52° SSW 19:16:09 35° SSE visible
16 Feb -3.3 18:19:11 10° WNW 18:22:27 79° SSW 18:25:41 10° ESE visible
16 Feb -0.9 19:56:13 10° W 19:58:30 18° SW 19:58:30 18° SW visible
17 Feb -1.6 19:03:03 10° W 19:05:54 28° SW 19:08:19 13° SSE visible
18 Feb -2.3 18:10:06 10° WNW 18:13:14 45° SSW 18:16:21 10° SE visible
